Imperial, CA

6:06 AM PDT on August 20, 2017 (GMT -0700)
Imperial County

Weather History for KIPL - July, 2013

Change the Weather History Date:

Wednesday, July 24, 2013

  Actual Average Record
Temperature  
Mean Temperature 96 °F -  
Max Temperature 109 °F 106 °F 117 °F (2014)
Min Temperature 84 °F 78 °F 64 °F (2001)
Cooling Degree Days 31    
Growing Degree Days 46 (Base 50)    
Moisture  
Dew Point 61 °F    
Average Humidity 33    
Maximum Humidity 46    
Minimum Humidity 21    
Precipitation  
Precipitation 0.00 in - - ()
Sea Level Pressure  
Sea Level Pressure 29.75 in    
Wind  
Wind Speed 4 mph (WSW)    
Max Wind Speed 10 mph    
Max Gust Speed -    
Visibility 10 miles    
Events      
Averages and records for this station are not official NWS values.
T = Trace of Precipitation, MM = Missing Value Source: NWS Daily Summary

Daily Weather History Graph

Daily Weather History Graph

Search for Another Location

Airport or City:

Trip Planner

Search our weather history database for the weather conditions in past years. The results will help you decide how hot, cold, wet, or windy it might be!

Date:

Astronomy

Jul. 24, 2013 Rise Set
Actual Time 5:50 AM PDT 7:46 PM PDT
Civil Twilight 5:23 AM PDT 8:13 PM PDT
Nautical Twilight 4:50 AM PDT 8:46 PM PDT
Astronomical Twilight 4:14 AM PDT 9:22 PM PDT
Moon 9:07 PM PDT (7/24) 8:05 AM PDT (7/24)
Length of Visible Light 14h 50m
Length of Day
13h 55m
Waning Gibbous, 94% of the Moon is Illuminated
Jul 24
Waning Gibbous
Jul 29
Last Quarter
Aug 6
New
Aug 14
First Quarter
Aug 20
Full

Hourly Weather History & Observations

Time (PDT) Temp. Heat Index Dew Point Humidity Pressure Visibility Wind Dir Wind Speed Gust Speed Precip Events Conditions
12:53 AM 86.0 °F 86.3 °F 62.1 °F 44% 29.79 in 10.0 mi West 5.8 mph - N/A   Clear
1:53 AM 86.0 °F 85.7 °F 60.1 °F 41% 29.78 in 10.0 mi West 5.8 mph - N/A   Clear
2:53 AM 84.9 °F 84.8 °F 60.1 °F 43% 29.78 in 10.0 mi West 3.5 mph - N/A   Clear
3:53 AM 84.0 °F 84.4 °F 61.0 °F 46% 29.77 in 10.0 mi West 4.6 mph - N/A   Clear
4:53 AM 84.9 °F 84.8 °F 60.1 °F 43% 29.78 in 10.0 mi West 4.6 mph - N/A   Clear
5:53 AM 84.0 °F 84.4 °F 61.0 °F 46% 29.79 in 10.0 mi Calm Calm - N/A   Clear
6:53 AM 84.9 °F 85.0 °F 61.0 °F 44% 29.80 in 10.0 mi SSW 5.8 mph - N/A   Clear
7:53 AM 89.1 °F 90.3 °F 64.0 °F 43% 29.80 in 10.0 mi SSW 4.6 mph - N/A   Clear
8:53 AM 93.9 °F 94.0 °F 61.0 °F 33% 29.81 in 10.0 mi Calm Calm - N/A   Clear
9:53 AM 96.1 °F 96.4 °F 61.0 °F 31% 29.81 in 10.0 mi Calm Calm - N/A   Clear
10:53 AM 98.1 °F 98.6 °F 61.0 °F 29% 29.81 in 10.0 mi Calm Calm - N/A   Clear
11:53 AM 100.9 °F 103.3 °F 63.0 °F 29% 29.80 in 10.0 mi Variable 3.5 mph - N/A   Clear
12:53 PM 102.0 °F 104.6 °F 63.0 °F 28% 29.78 in 10.0 mi WSW 4.6 mph - N/A   Clear
1:53 PM 105.1 °F 107.8 °F 63.0 °F 25% 29.75 in 10.0 mi WNW 4.6 mph - N/A   Clear
2:53 PM 106.0 °F 108.6 °F 62.1 °F 24% 29.72 in 10.0 mi Variable 4.6 mph - N/A   Clear
3:53 PM 107.1 °F 108.9 °F 61.0 °F 22% 29.69 in 10.0 mi Variable 3.5 mph - N/A   Clear
4:53 PM 108.0 °F 109.5 °F 60.1 °F 21% 29.67 in 10.0 mi Calm Calm - N/A   Clear
5:53 PM 107.1 °F 108.1 °F 59.0 °F 21% 29.65 in 10.0 mi Calm Calm - N/A   Clear
6:53 PM 107.1 °F 108.9 °F 60.1 °F 22% 29.66 in 10.0 mi ESE 4.6 mph - N/A   Clear
7:53 PM 102.9 °F 104.2 °F 61.0 °F 25% 29.68 in 10.0 mi South 9.2 mph - N/A   Clear
8:53 PM 100.0 °F 103.0 °F 64.0 °F 31% 29.70 in 10.0 mi SSW 10.4 mph - N/A   Clear
9:53 PM 96.1 °F 97.3 °F 63.0 °F 33% 29.73 in 10.0 mi WSW 6.9 mph - N/A   Clear
10:53 PM 93.9 °F 94.0 °F 61.0 °F 33% 29.75 in 10.0 mi WSW 4.6 mph - N/A   Clear
11:53 PM 93.9 °F 93.2 °F 59.0 °F 31% 29.74 in 10.0 mi NW 4.6 mph - N/A   Clear